This is the latest recevied weather packets stored in our database for station/object K1RFS. If no packets are shown the sender has not sent any weather packets the latest 10 day(s).
| Time | Temp. | Humidity | Pressure | Rain* | Wind** | Luminosity | Snow |
|---|---|---|---|---|---|---|---|
| 1788650213 | 32.22° C | 14% | 1000.7 hPa | 0 mm | - | 286 W/m² | - |
| 1788649909 | 32.22° C | 14% | 1000.8 hPa | 0 mm | - | 301 W/m² | - |
| 1788649604 | 32.78° C | 13% | 1001 hPa | 0 mm | - | 311 W/m² | - |
| 1788649302 | 32.78° C | 13% | 1000.9 hPa | 0 mm | - | 321 W/m² | - |
| 1788649002 | 32.78° C | 13% | 1000.9 hPa | 0 mm | - | 333 W/m² | - |
| 1788648702 | 32.22° C | 14% | 1000.8 hPa | 0 mm | - | 343 W/m² | - |
| 1788648402 | 32.22° C | 13% | 1000.9 hPa | 0 mm | - | 355 W/m² | - |
| 1788648102 | 32.22° C | 13% | 1001.2 hPa | 0 mm | - | 367 W/m² | - |
| 1788647799 | 32.22° C | 13% | 1001.2 hPa | 0 mm | - | 376 W/m² | - |
| 1788647495 | 31.67° C | 14% | 1001.2 hPa | 0 mm | - | 387 W/m² | - |
| 1788647191 | 32.22° C | 13% | 1001.3 hPa | 0 mm | - | 398 W/m² | - |
| 1788646885 | 32.22° C | 13% | 1001.2 hPa | 0 mm | - | 408 W/m² | - |
| 1788646581 | 31.67° C | 13% | 1001.4 hPa | 0 mm | - | 417 W/m² | - |
| 1788646278 | 32.22° C | 13% | 1001 hPa | 0 mm | - | 425 W/m² | - |
| 1788645973 | 32.22° C | 13% | 1001.5 hPa | 0 mm | - | 436 W/m² | - |
| 1788645669 | 32.22° C | 13% | 1001.3 hPa | 0 mm | - | 446 W/m² | - |
| 1788645368 | 32.22° C | 12% | 1001.3 hPa | 0 mm | - | 457 W/m² | - |
| 1788645064 | 32.22° C | 13% | 1001.6 hPa | 0 mm | - | 464 W/m² | - |
| 1788644760 | 32.22° C | 13% | 1001.7 hPa | 0 mm | - | 474 W/m² | - |
| 1788644454 | 32.22° C | 12% | 1001.6 hPa | 0 mm | - | 483 W/m² | - |
| 1788644150 | 32.22° C | 12% | 1001.5 hPa | 0 mm | - | 491 W/m² | - |
| 1788643845 | 32.22° C | 12% | 1001.7 hPa | 0 mm | - | 499 W/m² | - |
| 1788643545 | 32.22° C | 14% | 1001.6 hPa | 0 mm | - | 507 W/m² | - |
| 1788643245 | 32.22° C | 13% | 1001.7 hPa | 0 mm | - | 513 W/m² | - |
| 1788642954 | 32.22° C | 13% | 1001.7 hPa | 0 mm | - | 521 W/m² | - |
* Rain latest hour (hover to see other rain measurements)
** Current wind speed in m/s (hover to see current wind gust speed)